User: anonymous   Login
Location: Unspecified
(41.7447°N, 0.0000°E)
Time: 03:23:59
(UTC+00:00)
Language:

Tiros 3 despin weight - Orbit

View from above orbital plane
View from above orbital plane
View from above satellite
View from above satellite

Ground track
Ground track

The orbit is defined by the following mean orbital elements,

1 00167U          26088.19720744 +.00000000 +00000-0 +13193-3 0 00005
2 00167  47.8457  39.8082 0089688 144.3627 216.3289 14.24134210    00
Epoch (UTC): 29 March 2026 04:43:58
Eccentricity: 0.0089688
inclination: 47.8457°
perigee height: 747 km
apogee height: 876 km
right ascension of ascending node: 39.8082°
argument of perigee: 144.3627°
revolutions per day: 14.24134210
mean anomaly at epoch: 216.3289°

The dashed part of the orbit path shows where the satellite is in the earth's shadow,  

DLR